Location: Waco, TX
(31.5480°N, 97.1670°W)
Time: 11:21:57
(UTC-06:00)

ISS - Pass Details

Date: 14 November 2017
Orbit: 401 x 407 km, 51.6° (Epoch: 18 November)

Event Time Altitude Azimuth Distance (km) Brightness Sun altitude
Rises 23:56:44 0° 240° (WSW) 2,307 - -76.2°
Reaches altitude 10° 23:58:54 10° 249° (WSW) 1,450 - -76.4°
Maximum altitude 00:01:57 37° 319° (NW) 643 - -76.5°
Drops below altitude 10° 00:05:01 10° 29° (NNE) 1,454 - -76.6°
Sets 00:07:11 0° 38° (NE) 2,314 - -76.7°
